Aeroporto :
LOGIN :

Iscrizione | Disclaimer

   EN    FR    IT 

 










Sommario :    VFR   VFR Marginale   IFR   IFR Intensivo   IFR Molto Intensivo
Visibilità : 
Base nubi : 
>= 8 km
>= 3000ft
5 / 8 km
1000 / 3000 ft
1500m / 5 km
500 / 1000 ft
800 / 1500m
200 / 500 ft
< 800m
< 200 ft
Simboli :   Temporali  Nebbia  Neve Forte  Precipitazioni Forti  Vento > 20 kt
SIGMETs :   Varie  Temporali  Ghiacco  Turbolenza  Onda orograficha  Ceneri Vulcaniche






- Altitudine del aeroporto : 1046 ft
- Codice IATA : NUE


EDDN - Nuremberg

METARs OBSOLETI :
  • 280250Z AUTO 12010KT 9999 SHRA FEW///TCU 02/01 Q1016
  • 280220Z AUTO 14007KT CAVOK 02/01 Q1016
  • 280150Z AUTO 11005KT 8000 FEW013 02/01 Q1017
  • 272220Z AUTO 12009KT 9999 BKN012 03/01 Q1019

TAF TAF EDDN
Valido dal 28 a 00 ore il 29 a 00 ore UTC


272300Z 2800/2824 12007KT 9999 SCT010
PROB40
TEMPO 2800/2808 BKN010
PROB30
TEMPO 2800/2805 BKN008
PROB40
TEMPO 2817/2824 RADZ



MetMap, La meteo Aeronautica in un colpo d'occhio ! - Copyright ORBIFLY Dicembre 2007 - Disclaimer

ORBIFLY MET'MAP TEAM :

Programmazione e sviluppo : Alexandra Zaïnal
Concezione : Baudouin d'Aumeries
Supporto tecnico e logistico : Manuel Goepfert
Aiuto : Marc-Olivier Méhu
Aiuto per la traduzione : Arnaldo La Scala




FONTI E CREDITI :

   NOAA